Location: Unspecified
(0.0000°N, 0.0000°E)
Time: 08:58:00
(UTC+00:00)

Vanguard 2 - All Passes

Search period start: 03 April 2020 00:00
Search period end: 13 April 2020 00:00
Orbit: 553 x 2938 km, 32.9° (Epoch: 02 April)

Date Brightness Start Highest point End Pass type
(mag) Time Alt. Az. Time Alt. Az. Time Alt. Az.
03 Apr - 06:23:44 10° SSW 06:33:50 26° SSE 06:46:42 10° E daylight
03 Apr - 08:31:31 10° SW 08:46:44 67° SE 09:04:30 10° ENE daylight
03 Apr - 10:43:07 10° WSW 11:00:07 57° NW 11:16:01 10° NE daylight
03 Apr - 13:01:43 10° WNW 13:13:58 23° NNW 13:24:07 10° NNE daylight
03 Apr - 19:51:09 10° NNW 19:54:47 18° NNE 19:57:47 10° ENE visible
03 Apr - 21:59:19 10° WNW 22:03:20 44° SW 22:07:12 10° SE night (unlit)
04 Apr - 06:40:56 10° SSW 06:52:11 34° SE 07:06:57 10° E daylight
04 Apr - 08:49:20 10° SW 09:04:54 83° SE 09:22:53 10° ENE daylight
04 Apr - 11:02:06 10° WSW 11:18:27 46° NW 11:33:36 10° NE daylight
04 Apr - 13:23:00 10° WNW 13:32:55 18° NNW 13:41:18 10° NNE daylight
04 Apr - 20:08:11 10° NNW 20:13:00 31° NNE 20:16:42 10° E visible
04 Apr - 22:17:59 10° W 22:21:13 22° SW 22:24:24 10° SSE night (unlit)
05 Apr - 04:53:29 10° S 04:58:01 13° SSE 05:03:18 10° SE visible
05 Apr - 06:58:16 10° SSW 07:10:22 44° SE 07:26:34 10° ENE daylight
05 Apr - 09:07:22 10° WSW 09:23:05 81° NW 09:41:00 10° NE daylight
05 Apr - 11:21:33 10° W 11:36:58 36° NNW 11:51:06 10° NNE daylight
05 Apr - 13:44:55 10° NW 13:52:07 14° NNW 13:58:26 10° N daylight
05 Apr - 18:18:17 10° N 18:21:04 12° NNE 18:23:28 10° NE visible
05 Apr - 20:25:43 10° NW 20:31:02 60° NNE 20:35:01 10° ESE visible
05 Apr - 22:37:51 10° SW 22:39:11 11° SSW 22:40:32 10° SSW night (unlit)
06 Apr - 05:09:41 10° S 05:16:35 18° SE 05:25:24 10° ESE visible
06 Apr - 07:15:44 10° SW 07:28:26 57° SE 07:45:41 10° ENE daylight
06 Apr - 09:25:40 10° WSW 09:41:20 66° NW 09:58:54 10° NE daylight
06 Apr - 11:41:32 10° W 11:55:41 29° NNW 12:08:33 10° NNE daylight
06 Apr - 14:07:14 10° NNW 14:11:36 12° NNW 14:15:33 10° N daylight
06 Apr - 18:34:39 10° NNW 18:39:39 19° NNE 18:43:26 10° ENE visible
06 Apr - 20:43:40 10° WNW 20:48:55 69° SW 20:52:54 10° SE visible
07 Apr - 05:26:28 10° SSW 05:34:53 25° SE 05:46:21 10° E visible
07 Apr - 07:33:21 10° SW 07:46:29 72° SE 08:04:22 10° ENE daylight
07 Apr - 09:44:17 10° WSW 09:59:43 53° NNW 10:16:38 10° NE daylight
07 Apr - 12:02:07 10° WNW 12:14:41 23° NNW 12:26:01 10° NNE daylight
07 Apr - 14:29:32 10° NNW 14:31:12 10° N 14:32:49 10° N daylight
07 Apr - 16:44:03 10° N 16:46:21 11° N 16:48:26 10° NNE daylight
07 Apr - 18:51:45 10° NNW 18:58:03 30° NNE 19:02:25 10° E visible
07 Apr - 21:02:05 10° WNW 21:06:40 34° SW 21:10:21 10° SSE visible
08 Apr - 05:43:31 10° SSW 05:52:58 34° SE 06:06:31 10° E daylight
08 Apr - 07:51:12 10° SW 08:04:34 89° SE 08:22:44 10° NE daylight
08 Apr - 10:03:19 10° W 10:18:15 42° NNW 10:34:17 10° NE daylight
08 Apr - 12:23:14 10° WNW 12:33:57 18° NNW 12:43:35 10° NNE daylight
08 Apr - 14:49:21 10° N 14:50:50 10° N 14:52:16 10° N daylight
08 Apr - 17:00:05 10° NNW 17:05:18 15° NNE 17:09:26 10° NE daylight
08 Apr - 19:09:16 10° NW 19:16:16 49° NNE 19:20:51 10° ESE visible
08 Apr - 21:21:10 10° W 21:24:25 18° SW 21:27:16 10° S visible
09 Apr - 03:58:18 10° SSE 04:00:05 11° SE 04:01:58 10° SE visible
09 Apr - 06:00:47 10° SSW 06:10:55 45° SE 06:26:03 10° ENE daylight
09 Apr - 08:09:15 10° WSW 08:22:46 74° NW 08:40:49 10° NE daylight
09 Apr - 10:22:47 10° W 10:37:00 33° NNW 10:51:52 10° NNE daylight
09 Apr - 12:44:40 10° NW 12:53:30 15° NNW 13:01:24 10° NNE daylight
09 Apr - 15:06:39 10° NNW 15:10:22 11° N 15:13:42 10° NNE daylight
09 Apr - 17:17:00 10° NNW 17:24:04 21° NNE 17:29:07 10° ENE daylight
09 Apr - 19:27:08 10° NW 19:34:16 85° NNE 19:38:53 10° ESE visible
10 Apr - 04:13:07 10° S 04:18:22 16° SE 04:25:04 10° ESE visible
10 Apr - 06:18:13 10° SW 06:28:50 60° SE 06:45:04 10° ENE daylight
10 Apr - 08:27:36 10° WSW 08:41:06 59° NNW 08:58:43 10° NE daylight
10 Apr - 10:42:46 10° WNW 10:56:00 27° NNW 11:09:28 10° NNE daylight
10 Apr - 13:05:56 10° NW 13:13:13 14° N 13:19:45 10° NNE daylight
10 Apr - 15:23:51 10° NNW 15:29:45 14° N 15:34:37 10° NE daylight
10 Apr - 17:34:17 10° NNW 17:42:38 31° NNE 17:48:08 10° E daylight
10 Apr - 19:45:22 10° WNW 19:52:05 54° SW 19:56:33 10° SE visible
11 Apr - 04:29:37 10° S 04:36:25 24° SE 04:45:58 10° E visible
11 Apr - 06:35:52 10° SW 06:46:47 78° SE 07:03:41 10° ENE daylight
11 Apr - 08:46:16 10° W 08:59:37 47° NNW 09:16:28 10° NE daylight
11 Apr - 11:03:16 10° WNW 11:15:17 22° NNW 11:27:12 10° NNE daylight
11 Apr - 13:26:20 10° NNW 13:33:01 13° N 13:38:59 10° NNE daylight
11 Apr - 15:41:06 10° NNW 15:48:55 18° NNE 15:54:52 10° NE daylight
11 Apr - 17:51:50 10° NW 18:01:02 45° NNE 18:06:42 10° E daylight
11 Apr - 20:04:04 10° W 20:09:45 30° SW 20:13:51 10° SSE visible
12 Apr - 04:46:33 10° SSW 04:54:18 33° SE 05:05:59 10° E visible
12 Apr - 06:53:43 10° WSW 07:04:50 83° NW 07:21:58 10° NE daylight
12 Apr - 09:05:20 10° W 09:18:21 37° NNW 09:34:09 10° NE daylight
12 Apr - 11:24:10 10° NW 11:34:50 18° NNW 11:45:10 10° NNE daylight
12 Apr - 13:45:32 10° NNW 13:52:47 14° N 13:59:03 10° NNE daylight
12 Apr - 15:58:26 10° NNW 16:07:52 24° NNE 16:14:31 10° ENE daylight
12 Apr - 18:09:38 10° NW 18:19:12 69° NNE 18:24:52 10° ESE visible
12 Apr - 20:23:30 10° W 20:27:26 17° SW 20:30:36 10° S visible
